[[{"header":{"parameterUnit":"m.s-1","parameterCategory":1,"la1":30.2991,"la2":30.254,"lo1":-89.0895,"lo2":-89.0444,"dy":0.0017,"dx":0.0017,"nx":28,"ny":28,"refTime":"2025-03-09T09:00:00:Z","depth":0,"parameterNumber":2,"parameterNumberName":"U-component_of_WINDS"},"data":[0,0,0,0,0,0,0,0,0,0,0,0,0,0,0,0,0,0,0,0,0,0,0,0,0,0,0,0,0,0,0,0,0,0,0,0,0,0,0,0,0,0,0,0,0,0,0,0,0,0,0,0,0,0,0,0,0,0,-3.0539,-3.0539,0,-3.0563,-3.0563,-3.0563,-3.0531,-3.053,-3.0529,-3.0528,-3.0554,-3.0556,-3.0558,0,0,0,0,0,0,0,0,0,0,0,0,0,-3.0469,-3.047,-3.0539,-3.0539,-3.054,-3.0563,-3.0563,-3.0563,-3.0531,-3.053,-3.0529,-3.0527,-3.0554,-3.0556,-3.0558,0,0,0,0,0,0,0,0,0,0,0,0,0,-3.0497,-3.0471,-3.0539,-3.0527,-3.0526,-3.0563,-3.0563,-3.0563,-3.0532,-3.053,-3.0528,-3.0527,-3.0553,-3.0556,-3.0558,-3.0609,0,0,-3.0566,-3.0568,0,0,0,0,0,0,0,0,-3.0495,-3.0499,-3.0528,-3.0528,-3.0527,-3.0542,-3.0548,-3.0579,-3.0532,-3.053,-3.0528,-3.0526,-3.0552,-3.0555,-3.0563,-3.0611,-3.0612,-3.0567,-3.0568,-3.0569,-3.057,0,0,0,0,0,0,0,-3.0493,-3.0498,-3.0549,-3.0529,-3.0528,-3.052,-3.0523,-3.0554,-3.055,-3.053,-3.0527,-3.053,-3.0551,-3.056,-3.0563,-3.0612,-3.0567,-3.0569,-3.0571,-3.0572,-3.0702,-3.0704,0,0,0,0,0,0,-3.0492,-3.0497,-3.0548,-3.0549,-3.0506,-3.0523,-3.0525,-3.0539,-3.055,-3.055,-3.0532,-3.0529,-3.0557,-3.056,-3.0564,-3.0623,-3.0569,-3.0572,-3.0573,-3.0701,-3.0703,-3.0705,0,0,0,0,0,0,-3.0491,-3.0497,-3.0547,-3.0522,-3.0528,-3.0526,-3.0542,-3.054,-3.0549,-3.0551,-3.0551,-3.0542,-3.0555,-3.056,-3.0598,-3.0624,-3.0573,-3.0576,-3.0698,-3.0701,-3.0704,-3.0743,0,0,0,0,0,0,-3.0489,-3.0497,-3.0516,-3.0523,-3.0529,-3.058,-3.0543,-3.0542,-3.0554,-3.055,-3.056,-3.0561,-3.0554,-3.0594,-3.0601,-3.0627,-3.0578,-3.0696,-3.07,-3.0703,-3.074,-3.0747,-3.0754,0,0,0,0,0,-3.0487,-3.0527,-3.0517,-3.0523,-3.0553,-3.0581,-3.0585,-3.0576,-3.0556,-3.0575,-3.0576,-3.056,-3.0621,-3.0598,-3.0605,-3.0633,-3.0694,-3.0699,-3.0703,-3.0737,-3.0746,-3.0754,0,0,0,0,0,0,-3.0523,-3.0527,-3.0517,-3.056,-3.057,-3.0576,-3.06,-3.0587,-3.0604,-3.06,-3.0589,-3.0592,-3.0632,-3.0636,-3.0611,-3.0682,-3.0654,-3.066,-3.0677,-3.0686,-3.0693,-3.069,-3.058,0,0,0,0,0,-3.0537,-3.0559,-3.0561,-3.0599,-3.0605,-3.0602,-3.0614,-3.0606,-3.0617,-3.0621,-3.0625,-3.0637,-3.0659,-3.0673,-3.0693,-3.0741,-3.0742,-3.0763,-3.077,-3.0776,-3.0781,-3.0806,-3.0815,-3.0719,-3.0719,-3.0719,0,0,-3.0564,-3.0569,-3.0583,-3.0607,-3.0614,-3.0637,-3.0606,-3.0632,-3.0649,-3.0626,-3.0661,-3.0665,-3.0677,-3.072,-3.0739,-3.0725,-3.0808,-3.0781,-3.0786,-3.0787,-3.0811,-3.082,-3.0828,-3.0722,-3.0721,-3.0721,0,0,-3.0625,-3.0631,-3.0663,-3.0671,-3.0682,-3.0679,-3.0687,-3.0695,-3.0696,-3.0731,-3.0713,-3.0735,-3.0772,-3.0781,-3.0791,-3.0856,-3.0842,-3.0864,-3.0899,-3.0924,-3.0931,-3.0938,-3.096,-3.0968,-3.0868,-3.0869,-3.0869,0,-3.0657,-3.0691,-3.0681,-3.0708,-3.0719,-3.0698,-3.073,-3.0739,-3.0757,-3.0765,-3.0749,-3.0795,-3.0802,-3.0846,-3.0862,-3.0871,-3.0879,-3.0861,-3.0931,-3.0937,-3.0943,-3.0964,-3.0973,-3.0871,-3.0871,-3.087,-3.087,0,-3.073,-3.0754,-3.0778,-3.0794,-3.0808,-3.0838,-3.0833,-3.0848,-3.084,-3.084,-3.0876,-3.0884,-3.0904,-3.0915,-3.0907,-3.0958,-3.0949,-3.0932,-3.0903,-3.0955,-3.0974,-3.0983,-3.0874,-3.0874,-3.0873,-3.0872,0,0,-3.0814,-3.0824,-3.0833,-3.084,-3.0851,-3.0869,-3.0899,-3.0918,-3.0931,-3.0944,-3.0968,-3.1,-3.0985,-3.0996,-3.099,-3.1011,-3.1061,-3.0992,-3.0992,-3.1003,-3.1117,-3.1128,-3.1137,-3.1052,-3.1054,-3.1055,-3.1115,0,-3.0873,-3.0922,-3.0914,-3.0962,-3.0983,-3.0964,-3.099,-3.1,-3.1,-3.102,-3.1021,-3.1043,-3.1022,-3.1028,-3.1049,-3.1051,-3.1084,-3.1047,-3.1074,-3.1075,-3.107,-3.1148,-3.1159,-3.1215,-3.1123,-3.1124,-3.1125,0,-3.0949,-3.0964,-3.1013,-3.102,-3.1029,-3.1052,-3.1069,-3.1087,-3.1099,-3.1098,-3.111,-3.11,-3.113,-3.1101,-3.1142,-3.1117,-3.1128,-3.1131,-3.1133,-3.1134,-3.1102,-3.1149,-3.1233,-3.1241,-3.1137,-3.1136,-3.1135,0,-3.1003,-3.1036,-3.1069,-3.1076,-3.1085,-3.1102,-3.1107,-3.1116,-3.1128,-3.1144,-3.1151,-3.1171,-3.1181,-3.1197,-3.1192,-3.1172,-3.1234,-3.1205,-3.1233,-3.1233,-3.1246,-3.1245,-3.1331,-3.1256,-3.1256,-3.1256,-3.1255,0,-3.1069,-3.11,-3.1093,-3.1113,-3.1147,-3.1139,-3.1173,-3.1176,-3.1184,-3.1205,-3.1192,-3.1212,-3.1205,-3.1226,-3.1223,-3.1256,-3.1262,-3.1262,-3.126,-3.1262,-3.1261,-3.1268,-3.1263,-3.1258,-3.1257,-3.1257,-3.1257,0,-3.1134,-3.1131,-3.1166,-3.1172,-3.1175,-3.1199,-3.1205,-3.1224,-3.1224,-3.1251,-3.1257,-3.1257,-3.128,-3.1277,-3.1304,-3.1302,-3.1343,-3.1338,-3.1339,-3.1337,-3.1364,-3.1361,-3.1456,-3.1468,-3.1387,-3.1388,-3.1388,0,-3.1176,-3.1199,-3.1207,-3.122,-3.1226,-3.1246,-3.1258,-3.1252,-3.1265,-3.1279,-3.1297,-3.1319,-3.1335,-3.1374,-3.1376,-3.1396,-3.1391,-3.1423,-3.1393,-3.1394,-3.1389,-3.1387,-3.1389,-3.1428,-3.1429,-3.1429,-3.143,0,-3.1249,-3.1247,-3.1264,-3.1281,-3.1296,-3.1309,-3.1321,-3.1333,-3.1327,-3.1343,-3.1366,-3.1379,-3.1405,-3.1427,-3.1446,-3.1452,-3.144,-3.144,-3.1447,-3.1448,-3.1446,-3.1446,-3.1352,-3.1437,-3.1436,-3.1436,-3.1435,-3.1435,-3.1303,-3.1322,-3.133,-3.135,-3.1359,-3.137,-3.1388,-3.139,-3.1409,-3.1429,-3.1425,-3.145,-3.1462,-3.1486,-3.1494,-3.1514,-3.1503,-3.1513,-3.1516,-3.1518,-3.1521,-3.1445,-3.1518,-3.1518,-3.1518,-3.1517,-3.1517,0,-3.1374,-3.1379,-3.1397,-3.1414,-3.143,-3.1417,-3.143,-3.1444,-3.1467,-3.1478,-3.1494,-3.1521,-3.1542,-3.1547,-3.1567,-3.1582,-3.1577,-3.1588,-3.1585,-3.1587,-3.1531,-3.1521,-3.1591,-3.1591,-3.1591,-3.1591,-3.1591,-3.1591,-3.1413,-3.1444,-3.1442,-3.1478,-3.1483,-3.1507,-3.1515,-3.1526,-3.1534,-3.1564,-3.1581,-3.1584,-3.1593,-3.1613,-3.1632,-3.1633,-3.1641,-3.1653,-3.1652,-3.1599,-3.1591,-3.1584,-3.1575,-3.1655,-3.1655,-3.1706,-3.1707,-3.1707]},{"header":{"parameterUnit":"m.s-1","parameterCategory":1,"la1":30.2991,"la2":30.254,"lo1":-89.0895,"lo2":-89.0444,"dy":0.0017,"dx":0.0017,"nx":28,"ny":28,"refTime":"2025-03-09T09:00:00:Z","depth":0,"parameterNumber":3,"parameterNumberName":"V-component_of_WINDS"},"data":[0,0,0,0,0,0,0,0,0,0,0,0,0,0,0,0,0,0,0,0,0,0,0,0,0,0,0,0,0,0,0,0,0,0,0,0,0,0,0,0,0,0,0,0,0,0,0,0,0,0,0,0,0,0,0,0,0,0,0.1782,0.1781,0,0.1715,0.1714,0.1714,0.1694,0.1694,0.1695,0.1695,0.1624,0.1622,0.162,0,0,0,0,0,0,0,0,0,0,0,0,0,0.1892,0.189,0.1782,0.1781,0.178,0.1715,0.1714,0.1713,0.1694,0.1694,0.1695,0.1695,0.1625,0.1623,0.162,0,0,0,0,0,0,0,0,0,0,0,0,0,0.1837,0.189,0.1782,0.1763,0.176,0.1715,0.1714,0.1713,0.1694,0.1694,0.1695,0.1695,0.1626,0.1623,0.162,0.1589,0,0,0.1609,0.1608,0,0,0,0,0,0,0,0,0.184,0.1833,0.1766,0.1764,0.1761,0.1713,0.1727,0.1671,0.1694,0.1719,0.1695,0.1696,0.1653,0.1648,0.1634,0.1585,0.1582,0.1609,0.1607,0.1606,0.1605,0,0,0,0,0,0,0,0.1844,0.1836,0.1755,0.1765,0.1762,0.1757,0.175,0.1717,0.1684,0.1717,0.1715,0.1708,0.1652,0.1637,0.1632,0.1581,0.1609,0.1606,0.1604,0.1603,0.1507,0.1506,0,0,0,0,0,0,0.1851,0.1839,0.1757,0.1753,0.1803,0.1755,0.1747,0.1728,0.1684,0.1678,0.1707,0.1707,0.1643,0.1636,0.163,0.1592,0.1606,0.1603,0.1601,0.1507,0.1507,0.1506,0,0,0,0,0,0,0.1854,0.1844,0.176,0.1796,0.1785,0.1753,0.1732,0.1726,0.1712,0.1677,0.1671,0.1698,0.1643,0.1635,0.16,0.1589,0.1601,0.1598,0.1508,0.1507,0.1506,0.1516,0,0,0,0,0,0,0.1857,0.1845,0.1832,0.1796,0.1783,0.1731,0.1731,0.1725,0.1706,0.1705,0.1667,0.1661,0.1643,0.1605,0.1597,0.1585,0.1596,0.1509,0.1508,0.1507,0.1516,0.1515,0.1515,0,0,0,0,0,0.1861,0.1836,0.1832,0.1822,0.1766,0.173,0.1723,0.1703,0.1706,0.1693,0.1672,0.1662,0.1592,0.1602,0.1592,0.1579,0.1509,0.1508,0.1507,0.1516,0.1515,0.1515,0,0,0,0,0,0,0.1871,0.1831,0.1825,0.1788,0.1763,0.1727,0.171,0.1702,0.1674,0.1674,0.165,0.1642,0.1609,0.1591,0.1602,0.1549,0.1551,0.1547,0.1561,0.156,0.1559,0.1564,0.1593,0,0,0,0,0,0.1869,0.1844,0.181,0.1781,0.1768,0.1742,0.1725,0.1713,0.1685,0.1673,0.1649,0.1622,0.1595,0.1577,0.1549,0.1514,0.1506,0.1501,0.15,0.15,0.1497,0.148,0.1477,0.1502,0.1502,0.1502,0,0,0.1864,0.184,0.1824,0.1782,0.1761,0.1735,0.1733,0.1704,0.1685,0.1669,0.1635,0.1617,0.1586,0.1552,0.1535,0.1535,0.1489,0.1498,0.1498,0.1495,0.1478,0.1476,0.1474,0.1501,0.1501,0.1501,0,0,0.1843,0.1821,0.1796,0.1775,0.1744,0.1727,0.1722,0.1688,0.1675,0.1642,0.163,0.1607,0.1559,0.1538,0.1521,0.1497,0.1488,0.1488,0.1483,0.1467,0.1465,0.1463,0.1455,0.1453,0.1486,0.1486,0.1486,0,0.184,0.1801,0.1783,0.1757,0.1739,0.1726,0.17,0.1681,0.1642,0.1631,0.1632,0.1574,0.1552,0.1514,0.1508,0.1495,0.1488,0.1491,0.1467,0.1465,0.1463,0.1455,0.1452,0.1486,0.1486,0.1486,0.1486,0,0.1801,0.1774,0.1757,0.1722,0.1703,0.1677,0.1656,0.1639,0.1629,0.1612,0.158,0.1553,0.1521,0.1512,0.1501,0.1473,0.1474,0.1472,0.1473,0.1461,0.1453,0.145,0.1486,0.1486,0.1486,0.1486,0,0,0.178,0.1739,0.1732,0.1718,0.1685,0.1664,0.1639,0.1609,0.1595,0.157,0.1549,0.1511,0.1509,0.149,0.1477,0.1463,0.1447,0.1462,0.1461,0.1461,0.1417,0.1419,0.1416,0.1442,0.1442,0.1441,0.142,0,0.1754,0.1709,0.1694,0.1656,0.1632,0.1621,0.16,0.1578,0.1563,0.1541,0.1524,0.1498,0.1497,0.1486,0.1471,0.1452,0.1438,0.1454,0.1422,0.1421,0.143,0.1411,0.1412,0.1393,0.1416,0.1416,0.1416,0,0.1717,0.1694,0.1654,0.1627,0.1617,0.1597,0.1571,0.155,0.1525,0.1516,0.1497,0.1486,0.1461,0.1465,0.143,0.1441,0.1428,0.1418,0.1416,0.1412,0.1417,0.1406,0.1386,0.1384,0.1411,0.1411,0.1411,0,0.1706,0.1665,0.1637,0.1625,0.1592,0.1579,0.1565,0.1541,0.1526,0.1503,0.1493,0.1467,0.1452,0.1433,0.1416,0.1421,0.1383,0.1386,0.1375,0.1375,0.1365,0.1366,0.1343,0.1358,0.1358,0.1358,0.1358,0,0.1679,0.1655,0.1632,0.1615,0.1589,0.1573,0.1548,0.1533,0.1513,0.1493,0.1482,0.1464,0.1443,0.1422,0.1409,0.1383,0.1377,0.1369,0.1365,0.1369,0.137,0.1359,0.136,0.1357,0.1358,0.1358,0.1358,0,0.1661,0.1645,0.1614,0.1587,0.158,0.1563,0.154,0.1523,0.151,0.1485,0.1478,0.1456,0.1432,0.1414,0.1381,0.1373,0.1345,0.1342,0.1353,0.1352,0.1342,0.1343,0.131,0.1306,0.1324,0.1324,0.1324,0,0.1644,0.1626,0.1599,0.1586,0.1572,0.155,0.1535,0.152,0.1505,0.1478,0.1465,0.144,0.1419,0.1381,0.1362,0.1338,0.1334,0.1325,0.133,0.1336,0.1334,0.1335,0.1334,0.1323,0.1323,0.1323,0.1323,0,0.1616,0.161,0.1589,0.1566,0.1549,0.153,0.151,0.15,0.1482,0.1465,0.1441,0.1425,0.1394,0.137,0.1345,0.1331,0.1324,0.1322,0.1318,0.1321,0.1329,0.1325,0.1351,0.1322,0.1322,0.1322,0.1322,0.1322,0.1598,0.1583,0.1562,0.154,0.1525,0.1508,0.1492,0.1478,0.1457,0.1431,0.1424,0.1399,0.1379,0.1345,0.1331,0.1312,0.1312,0.1306,0.1305,0.1303,0.1304,0.1333,0.1307,0.1307,0.1307,0.1307,0.1307,0,0.1569,0.1557,0.1537,0.1512,0.1495,0.1492,0.1472,0.1458,0.1437,0.1418,0.1399,0.1373,0.1351,0.1332,0.1309,0.1298,0.1294,0.1292,0.1292,0.129,0.1305,0.1311,0.1296,0.1296,0.1296,0.1296,0.1296,0.1296,0.1552,0.1527,0.1519,0.1487,0.1475,0.1451,0.144,0.1425,0.1411,0.1383,0.1365,0.1353,0.1336,0.1312,0.1292,0.1287,0.1279,0.1278,0.1273,0.1287,0.1288,0.1289,0.1295,0.1277,0.1277,0.1259,0.1259,0.1259]}]]